User: anonymous
Location: Brno
(49.2000°N, 16.6330°E)
Time: 07:31:50
(UTC+02:00)
Language:

BREEZE M DEB (TANK) - Orbit

View from above orbital plane
View from above orbital plane
View from above satellite
View from above satellite

Ground track
Ground track

The orbit data is extracted from the following two-line orbital elements,

1 28359U 04022B   14106.78763396  .00010517  00000-0  13165-2 0  1675
2 28359 049.5150 112.8921 4726270 331.8105 028.0710 06.09956438213965
Epoch (UTC): 16 April 2014 18:54:11
Eccentricity: 0.4726270
inclination: 49.5150°
perigee height: 295 km
apogee height: 12255 km
right ascension of ascending node: 112.8921°
argument of perigee: 331.8105°
revolutions per day: 6.09956438
mean anomaly at epoch: 28.0710°
orbit number at epoch: 21396

The dashed part of the orbit path shows where the satellite is in the earth's shadow,  

DLR